[[{"header":{"parameterUnit":"m.s-1","parameterCategory":1,"la1":30.2992,"la2":30.254,"lo1":-89.0895,"lo2":-89.0443,"dy":0.0025,"dx":0.0025,"nx":19,"ny":19,"refTime":"2026-05-05T09:00:00:Z","depth":0,"parameterNumber":2,"parameterNumberName":"U-component_of_WINDS"},"data":[0,0,0,0.0837,0.0834,0.0694,0.0693,0.0538,0.0537,0,0,0,0,0,0,0,0,0,0,0,0.0895,0.0895,0.0837,0.0834,0.0694,0.0693,0.0539,0.0537,0,0,0,0,0,0,0,0,0,0,0,0.0896,0.0895,0.0895,0.0833,0.0694,0.0693,0.0539,0.0635,0,0,0,0,0,0,0,0,0,0,0.0767,0.0839,0.0895,0.0895,0.0833,0.0694,0.0693,0.064,0.0629,0.0613,0,0.0606,0,0.0569,0.0529,0.0528,0,0,0,0.082,0.0848,0.0794,0.0895,0.0832,0.0695,0.0753,0.0634,0.0622,0.06,0.0603,0.0597,0.0567,0.0528,0.0527,0.0484,0.0484,0,0,0.0828,0.0879,0.0802,0.0788,0.0814,0.0758,0.0749,0.0626,0.0632,0.0602,0.0592,0.0564,0.0527,0.0526,0.0483,0.0484,0,0,0,0.0859,0.0885,0.0834,0.0795,0.0768,0.0754,0.0744,0.0638,0.0617,0.0591,0.0562,0.0526,0.0525,0.0483,0.0483,0.0554,0,0,0,0.0863,0.0903,0.0838,0.0868,0.0771,0.0702,0.0759,0.0625,0.061,0.0563,0.0526,0.0524,0.0482,0.0483,0.0551,0.0579,0,0,0,0.0899,0.0907,0.0893,0.0871,0.0813,0.0702,0.0674,0.0621,0.0593,0.0528,0.0523,0.0482,0.0483,0.0548,0.0574,0.0582,0,0,0,0.095,0.0958,0.0895,0.0892,0.0815,0.0748,0.0674,0.0622,0.0575,0.0526,0.0482,0.0483,0.0548,0.0571,0.0579,0.0597,0.0609,0,0,0.0988,0.0964,0.0958,0.0898,0.0856,0.0765,0.0732,0.064,0.0586,0.052,0.0518,0.0552,0.0574,0.0581,0.0663,0.0673,0,0,0,0.0987,0.0984,0.0961,0.092,0.085,0.0792,0.0699,0.0665,0.0606,0.0564,0.0555,0.0567,0.0569,0.0575,0.0584,0.0581,0.0489,0.0488,0.0488,0.1113,0.1045,0.103,0.0945,0.0905,0.0809,0.077,0.0706,0.0648,0.0648,0.0627,0.0686,0.0695,0.0701,0.07,0.0632,0.0632,0.0632,0.0632,0.1161,0.1145,0.1068,0.1026,0.0953,0.0916,0.0823,0.0784,0.0737,0.0695,0.0694,0.0654,0.0715,0.0709,0.0637,0.0636,0.0636,0.0635,0.0635,0.1235,0.1215,0.1174,0.1106,0.106,0.0973,0.0932,0.0866,0.0804,0.0803,0.0773,0.0772,0.0762,0.0794,0.0794,0.0794,0.0794,0.0794,0.0794,0.1328,0.1279,0.1254,0.1181,0.1145,0.1089,0.0992,0.0953,0.0894,0.0849,0.0849,0.079,0.0734,0.0721,0.0797,0.0797,0.0796,0.0796,0.0796,0.1401,0.1374,0.1335,0.1299,0.1207,0.1165,0.1082,0.101,0.0968,0.095,0.0891,0.0861,0.0831,0.0823,0.0812,0.0907,0.0907,0.0907,0.0907,0.1463,0.1442,0.1387,0.1333,0.1273,0.1194,0.115,0.1074,0.0991,0.096,0.0937,0.0916,0.0912,0.0884,0.0876,0.0864,0.097,0.097,0.097,0.1503,0.1473,0.1449,0.1369,0.1292,0.1226,0.1182,0.1121,0.1021,0.0971,0.0935,0.0932,0.0898,0.0891,0.084,0.0828,0.0805,0,0]},{"header":{"parameterUnit":"m.s-1","parameterCategory":1,"la1":30.2992,"la2":30.254,"lo1":-89.0895,"lo2":-89.0443,"dy":0.0025,"dx":0.0025,"nx":19,"ny":19,"refTime":"2026-05-05T09:00:00:Z","depth":0,"parameterNumber":3,"parameterNumberName":"V-component_of_WINDS"},"data":[0,0,0,6.6594,6.6598,6.6787,6.6787,6.7024,6.7026,0,0,0,0,0,0,0,0,0,0,0,6.654,6.6542,6.6594,6.6599,6.6787,6.6787,6.7024,6.7027,0,0,0,0,0,0,0,0,0,0,0,6.6539,6.6541,6.6543,6.6599,6.6786,6.6787,6.7023,6.6882,0,0,0,0,0,0,0,0,0,0,6.67,6.6652,6.6541,6.6543,6.6601,6.6786,6.6788,6.6875,6.6891,6.6939,0,6.6985,0,6.701,6.7042,6.7043,0,0,0,6.6597,6.6639,6.6688,6.6544,6.6602,6.6786,6.6701,6.6884,6.6902,6.6959,6.6988,6.6997,6.7013,6.7044,6.7045,6.7333,6.7334,0,0,6.6587,6.6574,6.6676,6.67,6.6675,6.6695,6.6707,6.6895,6.6924,6.6989,6.7002,6.7017,6.7046,6.7047,6.7332,6.7333,0,0,0,6.6558,6.6567,6.6612,6.669,6.6725,6.6701,6.6715,6.6915,6.6931,6.7005,6.702,6.7047,6.705,6.733,6.7332,6.739,0,0,0,6.6552,6.655,6.6607,6.6601,6.6721,6.6823,6.6731,6.6918,6.694,6.7019,6.7047,6.7052,6.7329,6.7331,6.7385,6.7419,0,0,0,6.6527,6.6547,6.6575,6.66,6.6681,6.682,6.6847,6.6923,6.695,6.7043,6.7053,6.7328,6.7331,6.7381,6.7412,6.749,0,0,0,6.6497,6.6624,6.6576,6.6723,6.668,6.6856,6.6846,6.6978,6.7066,6.7048,6.7329,6.7332,6.738,6.7408,6.7485,6.7553,6.758,0,0,6.665,6.6642,6.673,6.6692,6.6874,6.6828,6.7018,6.7109,6.7129,6.7263,6.727,6.7387,6.7412,6.7489,6.774,6.7762,0,0,0,6.6774,6.6836,6.6888,6.6972,6.7046,6.7111,6.7175,6.7208,6.7323,6.7196,6.7437,6.7452,6.7498,6.7531,6.7549,6.7588,6.7347,6.7347,6.7346,6.6972,6.6991,6.7136,6.7178,6.7259,6.7323,6.739,6.7445,6.744,6.7496,6.7536,6.7687,6.7724,6.7738,6.7779,6.7574,6.7575,6.7575,6.7575,6.7196,6.7287,6.7278,6.7416,6.7434,6.7549,6.7614,6.7607,6.7714,6.7659,6.77,6.7637,6.7762,6.7798,6.758,6.7579,6.7578,6.7578,6.7577,6.7327,6.7374,6.7414,6.7535,6.7626,6.7663,6.7766,6.7779,6.7792,6.7833,6.7874,6.7873,6.7872,6.7852,6.7853,6.7853,6.7853,6.7854,6.7854,6.7446,6.7489,6.7576,6.7665,6.7719,6.7792,6.7856,6.7909,6.797,6.7971,6.7972,6.7959,6.7771,6.7723,6.7862,6.7861,6.786,6.7859,6.7859,6.7665,6.7617,6.7752,6.7806,6.7909,6.7997,6.8013,6.8119,6.8164,6.8214,6.8193,6.8053,6.8045,6.803,6.799,6.819,6.819,6.819,6.819,6.7774,6.7772,6.7911,6.7997,6.8082,6.8109,6.8256,6.8307,6.8351,6.8379,6.8352,6.83,6.8285,6.8286,6.8266,6.8228,6.8485,6.8485,6.8485,6.7908,6.7914,6.8039,6.8084,6.8165,6.8233,6.8371,6.8467,6.8507,6.8498,6.8401,6.8389,6.8305,6.8278,6.8265,6.8233,6.8165,0,0]}]]